Grand Canyon, AZ

2:42 PM MST on November 17, 2017 (GMT -0700)
Grand Canyon National Park

Weather History for KGCN - May, 2013

Change the Weather History Date:

Monday, May 13, 2013

  Actual Average Record
Temperature  
Mean Temperature 56 °F -  
Max Temperature 80 °F 68 °F 82 °F (1984)
Min Temperature 32 °F 29 °F 23 °F (2014)
Degree Days  
Heating Degree Days 9    
Growing Degree Days 6 (Base 50)    
Moisture  
Dew Point 18 °F    
Average Humidity 28    
Maximum Humidity 54    
Minimum Humidity 9    
Precipitation  
Precipitation 0.00 in - - ()
Sea Level Pressure  
Sea Level Pressure 30.08 in    
Wind  
Wind Speed 2 mph (NE)    
Max Wind Speed 9 mph    
Max Gust Speed 20 mph    
Visibility 10 miles    
Events      
Averages and records for this station are not official NWS values.
T = Trace of Precipitation, MM = Missing Value Source: NWS Daily Summary

Daily Weather History Graph

Daily Weather History Graph

Search for Another Location

Airport or City:

Trip Planner

Search our weather history database for the weather conditions in past years. The results will help you decide how hot, cold, wet, or windy it might be!

Date:

Astronomy

May. 13, 2013 Rise Set
Actual Time 5:24 AM MST 7:26 PM MST
Civil Twilight 4:55 AM MST 7:54 PM MST
Nautical Twilight 4:21 AM MST 8:29 PM MST
Astronomical Twilight 3:44 AM MST 9:06 PM MST
Moon 8:14 AM MST (5/13) 10:37 PM MST (5/13)
Length of Visible Light 14h 58m
Length of Day
14h 01m
Waxing Crescent, 13% of the Moon is Illuminated
May 13
Waxing Crescent
May 17
First Quarter
May 24
Full
May 31
Last Quarter
Jun 8
New

Hourly Weather History & Observations

Time (MST) Temp. Windchill Dew Point Humidity Pressure Visibility Wind Dir Wind Speed Gust Speed Precip Events Conditions
12:54 AM 39.9 °F 37.8 °F 18.0 °F 41% 30.12 in 10.0 mi ENE 3.5 mph - N/A   Clear
1:54 AM 37.0 °F - 18.0 °F 46% 30.13 in 10.0 mi Calm Calm - N/A   Clear
2:54 AM 36.0 °F - 18.0 °F 48% 30.13 in 10.0 mi Calm Calm - N/A   Clear
3:54 AM 34.0 °F - 18.0 °F 52% 30.14 in 10.0 mi Calm Calm - N/A   Clear
4:54 AM 32.0 °F - 17.1 °F 54% 30.15 in 10.0 mi Calm Calm - N/A   Clear
5:54 AM 36.0 °F - 19.0 °F 50% 30.15 in 10.0 mi Calm Calm - N/A   Clear
6:54 AM 48.9 °F - 23.0 °F 36% 30.15 in 10.0 mi Calm Calm - N/A   Clear
7:54 AM 68.0 °F - 26.1 °F 21% 30.11 in 10.0 mi Calm Calm - N/A   Clear
8:54 AM 72.0 °F - 18.0 °F 13% 30.12 in 10.0 mi Calm Calm - N/A   Clear
9:54 AM 73.9 °F - 16.0 °F 11% 30.12 in 10.0 mi Variable 3.5 mph - N/A   Clear
10:54 AM 77.0 °F - 16.0 °F 10% 30.12 in 10.0 mi Variable 4.6 mph - N/A   Clear
11:54 AM 78.1 °F - 16.0 °F 10% 30.09 in 10.0 mi South 6.9 mph 19.6 mph N/A   Clear
1:54 PM 77.0 °F - 18.0 °F 11% 30.09 in 10.0 mi NE 9.2 mph - N/A   Scattered Clouds
2:54 PM 77.0 °F - 17.1 °F 10% 30.07 in 10.0 mi Calm Calm - N/A   Scattered Clouds
3:54 PM 78.1 °F - 17.1 °F 10% 30.06 in 10.0 mi Variable 4.6 mph - N/A   Clear
5:54 PM 80.1 °F - 15.1 °F 9% 30.01 in 10.0 mi North 5.8 mph - N/A   Clear
6:54 PM 75.0 °F - 16.0 °F 11% 29.98 in 10.0 mi North 3.5 mph - N/A   Clear
7:54 PM 55.0 °F - 19.9 °F 25% 29.99 in 10.0 mi Calm Calm - N/A   Clear
8:54 PM 51.1 °F - 19.9 °F 29% 30.00 in 10.0 mi Calm Calm - N/A   Clear
9:54 PM 45.0 °F - 18.0 °F 34% 30.01 in 10.0 mi Calm Calm - N/A   Clear
10:54 PM 44.1 °F - 19.9 °F 38% 30.00 in 10.0 mi Calm Calm - N/A   Clear
11:54 PM 41.0 °F 37.1 °F 17.1 °F 38% 30.01 in 10.0 mi NE 5.8 mph - N/A   Clear